Location: Unspecified
(43.4680°N, 87.1740°E)
Time: 05:05:08
(UTC+00:00)

Cosmos 2219 Rocket - Pass Details

Date: 17 April 2021
Orbit: 826 x 848 km, 71.0° (Epoch: 16 May)

Event Time Altitude Azimuth Distance (km) Brightness Sun altitude
Rises 14:19:25 0° 336° (NNW) 3,419 6.3 -14.6°
Reaches altitude 10° 14:21:53 10° 338° (NNW) 2,481 5.5 -15.0°
Maximum altitude 14:27:36 77° 64° (ENE) 873 2.2 -15.9°
Enters shadow 14:31:17 23° 148° (SSE) 1,737 3.3 -16.4°
